Lapse_Rate
7.8 8.1 8.3 6.3 8.0 8.2 8.9 8.6 8.5 7.3 7.5 8.9 8.2 7.4 6.7 5.6 7.0 6.2 5.7 7.2 7.5 7.2 6.3 5.7 5.9 5.6 4.6 3.9 3.7 3.0 6.5 6.5 6.5 6.5 6.5 5.8 6.4 5.4 4.7 5.2 5.0 4.0 4.4 3.9 3.3
7.7 8.4 8.3 7.2 6.8 8.0 8.8 8.9 8.9 8.0 8.8 8.1 8.2 7.4 5.7 6.4 6.7 4.9 7.0 7.9 8.9 6.9 5.9 5.8 5.3 5.3 3.6 4.5 3.3 5.2 6.5 6.5 6.5 6.5 6.5 6.1 6.0 5.2 5.9 5.3 5.7 4.8 4.1 3.9 3.2
7.9 7.7 8.1 7.9 6.4 7.5 7.9 8.4 8.6 8.1 8.0 8.0 7.6 6.9 6.0 6.4 6.5 6.2 7.4 6.6 6.3 6.8 5.2 5.2 5.0 4.7 4.9 4.3 5.0 6.2 6.5 6.5 6.4 6.1 5.6 6.2 6.1 4.5 6.0 6.5 5.6 5.4 4.9 4.2 4.1
8.2 7.8 7.7 7.3 5.6 6.5 7.4 8.5 8.2 7.5 7.3 7.3 7.1 7.4 6.1 6.0 6.5 6.5 5.5 4.7 4.5 5.6 5.6 5.6 4.5 4.2 6.1 6.5 5.5 6.4 6.2 6.3 6.2 5.1 5.7 6.3 4.9 6.0 5.3 5.7 3.4 3.7 3.4 3.6 3.0
7.6 7.4 7.5 7.0 7.3 6.1 5.9 6.9 7.2 7.4 7.6 7.3 6.7 6.0 6.0 5.8 6.1 4.8 4.0 2.6 3.0 5.5 5.2 4.7 4.1 4.3 6.5 6.1 5.8 6.5 6.4 5.6 5.5 4.6 5.2 5.6 6.0 6.0 4.3 3.7 1.8 1.9 3.4 3.3 3.0
7.3 7.5 7.4 7.3 6.7 6.1 6.5 7.0 6.8 6.8 6.7 6.8 6.3 5.9 6.1 6.5 5.3 3.0 1.6 2.6 4.9 4.6 3.5 3.5 4.2 3.3 4.6 5.9 6.2 5.9 5.7 6.1 5.1 5.5 5.2 6.1 6.2 5.2 5.4 3.3 4.0 3.7 3.7 2.9 3.1
8.1 7.3 7.6 7.7 7.4 7.2 6.2 6.1 6.9 6.8 6.4 5.4 5.5 6.4 6.3 5.6 4.6 2.7 2.0 3.2 3.3 4.7 3.4 3.1 3.7 3.7 4.2 6.3 5.5 5.7 6.5 6.5 5.8 5.9 6.3 5.4 6.5 6.5 4.5 4.1 4.4 3.7 3.2 3.1 1.7
7.5 7.2 7.6 7.8 7.7 8.1 6.9 6.6 6.4 6.0 6.2 5.9 5.4 5.2 5.9 5.8 5.6 3.1 2.7 4.4 3.5 3.1 2.9 3.6 2.7 2.4 4.4 4.6 4.8 6.5 6.5 6.5 6.5 6.2 6.0 6.1 6.5 6.4 4.0 5.1 4.7 3.0 2.6 2.6 1.9
6.3 6.6 7.3 7.3 7.9 7.6 8.3 7.4 7.0 6.6 6.2 6.0 5.0 5.2 6.0 6.0 3.6 2.7 2.8 4.8 4.2 3.8 3.0 3.7 2.0 3.7 3.9 6.5 6.5 6.5 6.5 6.5 6.5 6.4 6.5 6.5 6.5 6.3 4.9 4.0 3.2 2.2 1.8 2.9 2.5
4.7 5.3 6.5 6.8 6.6 7.1 7.4 7.7 8.0 7.3 7.1 6.4 5.7 5.9 6.4 5.2 3.9 3.2 3.8 4.3 3.8 4.5 3.7 2.3 2.0 6.5 6.5 6.5 6.5 6.5 6.5 6.5 6.5 6.5 6.5 6.5 6.5 6.4 3.9 4.0 2.9 1.8 1.5 2.9 2.7
4.1 3.8 5.3 6.6 6.1 5.5 5.5 5.3 5.3 6.1 5.7 6.2 5.9 5.6 5.0 3.7 3.8 4.7 4.0 4.6 3.8 2.5 6.5 4.7 6.5 6.5 6.5 6.5 6.5 6.5 6.5 6.5 6.5 6.5 6.5 6.5 6.5 6.5 5.7 4.6 3.6 2.5 2.3 2.7 2.6
3.1 3.2 3.8 5.0 5.8 5.8 3.3 3.7 4.8 6.0 6.2 5.0 5.0 4.2 4.1 3.1 4.5 4.4 4.0 4.5 4.8 6.5 6.4 6.5 6.5 6.5 6.5 6.5 6.5 6.5 6.5 6.5 6.5 6.5 6.5 6.5 6.5 6.5 6.2 5.8 4.8 4.2 3.4 3.1 2.8
3.0 2.7 3.1 3.6 4.8 2.9 2.2 3.1 4.2 5.2 5.5 5.5 4.6 5.1 4.8 4.4 5.5 4.8 4.5 5.3 6.1 6.5 6.5 6.5 6.5 6.4 6.5 6.5 6.5 6.5 6.5 6.5 6.5 6.5 6.5 6.5 6.5 6.5 6.5 6.1 5.3 5.0 4.0 3.2 2.1
3.0 3.0 3.1 3.8 3.2 2.2 3.2 3.6 3.6 3.7 6.5 6.5 6.0 5.7 5.8 5.0 5.9 5.7 4.8 5.4 5.9 6.5 6.5 6.5 6.4 6.5 6.5 6.5 6.5 6.5 6.5 6.5 6.5 6.5 6.5 6.5 6.5 6.5 6.5 6.5 6.4 4.3 3.0 1.8 1.6
2.8 2.7 3.0 3.6 2.2 2.5 3.4 3.2 3.7 4.1 6.5 6.5 5.8 6.3 5.8 5.5 6.3 5.5 5.0 4.5 6.5 6.5 6.5 6.5 6.5 6.5 6.5 6.5 6.5 6.5 6.5 6.5 6.5 6.5 6.5 6.5 6.5 6.5 6.5 6.5 6.5 5.2 2.5 1.6 1.3
2.3 2.8 3.0 1.8 1.1 2.3 2.6 2.2 2.4 6.5 6.5 6.5 6.0 6.4 6.4 5.5 6.0 5.1 5.1 4.2 6.0 6.5 6.5 6.5 6.3 6.5 6.5 6.5 6.5 6.5 6.5 6.5 6.5 6.5 6.5 6.5 6.5 6.5 6.5 6.5 6.5 6.0 2.6 2.0 1.9
1.8 2.5 2.5 2.0 3.0 2.0 1.7 2.2 6.5 6.5 6.5 6.5 6.5 6.5 6.5 6.5 6.5 6.4 6.5 6.5 6.5 6.5 6.5 6.5 6.5 6.4 6.4 6.5 6.5 6.5 6.5 6.5 6.5 6.5 6.5 6.5 6.5 6.5 6.5 6.5 6.5 6.3 3.7 2.1 1.4
1.8 2.1 1.9 2.2 1.8 2.0 1.0 5.9 6.5 6.5 6.5 6.5 6.5 6.5 6.5 6.5 6.5 6.5 6.5 6.5 6.5 6.5 6.5 6.5 6.5 6.5 6.5 6.5 6.5 6.5 6.5 6.5 6.5 6.5 6.5 6.5 6.5 6.5 6.5 5.9 4.5 4.2 3.2 2.5 1.8
1.2 -0.8 0.7 0.9 1.8 1.0 2.1 6.5 6.5 6.5 6.5 6.5 6.5 6.5 6.5 6.5 6.5 6.5 6.5 6.5 6.5 6.5 6.5 6.5 6.5 6.5 6.5 6.5 6.5 6.5 6.5 6.5 6.5 6.5 6.5 6.5 6.5 6.5 6.5 6.5 5.6 4.2 3.4 1.9 1.2
-0.6 0.2 1.3 1.4 1.1 0.4 5.3 6.5 6.5 6.2 6.3 6.5 6.5 6.5 6.5 6.5 6.5 6.5 6.5 6.5 6.5 6.3 6.2 6.5 6.5 6.5 6.5 6.3 6.4 6.5 6.5 6.5 6.5 6.5 6.5 6.5 6.5 6.5 6.5 6.5 6.5 6.2 4.1 1.5 0.7
-0.5 2.0 1.4 0.5 0.1 0.5 6.5 6.5 6.5 6.2 6.1 6.5 6.5 6.5 6.5 6.5 6.5 6.5 6.5 6.5 6.5 6.5 6.2 6.5 6.5 6.5 6.5 6.5 6.5 6.5 6.5 6.5 6.5 6.5 6.5 6.5 6.5 6.5 6.5 6.5 6.5 5.9 2.9 1.4 0.8
-0.5 5.7 0.6 -0.8 2.7 4.4 6.5 6.5 6.5 6.4 6.2 6.4 6.4 6.5 6.5 6.5 6.5 6.5 6.5 6.5 5.0 5.8 6.5 6.5 6.5 6.5 6.5 6.5 6.5 6.5 6.5 6.5 6.5 6.5 6.5 6.5 6.5 6.5 6.5 6.4 5.6 4.5 2.9 1.8 0.8
0.8 1.1 -0.2 0.3 6.5 6.5 6.4 6.5 6.4 6.5 6.5 6.5 6.5 6.5 6.5 6.5 6.5 6.5 6.5 6.2 5.2 6.3 6.5 6.5 6.5 6.5 6.5 6.5 6.5 6.5 6.5 6.5 6.5 6.5 6.5 6.5 6.5 6.5 6.3 6.2 4.3 3.9 2.3 2.0 1.3
1.2 6.5 0.7 -0.7 2.3 6.2 6.5 6.5 6.5 6.1 6.4 6.2 6.5 6.4 6.5 6.5 6.5 6.5 6.5 6.5 5.6 6.2 6.5 5.9 6.5 6.5 6.5 6.5 6.5 6.5 6.5 6.5 6.5 6.5 6.5 6.5 6.5 6.5 6.5 6.5 5.4 3.2 1.8 1.2 1.3
0.3 5.1 4.3 6.5 5.7 6.1 6.4 6.5 6.5 6.5 6.3 6.0 6.5 6.5 6.5 6.5 6.5 6.5 6.5 6.5 6.3 6.5 6.2 6.5 6.5 6.5 6.5 6.5 6.5 6.5 6.5 6.5 6.5 6.5 6.5 6.5 6.5 6.5 6.5 6.5 4.4 3.1 2.8 2.4 2.8
3.7 4.2 2.5 4.2 4.7 6.4 6.5 6.5 6.5 6.5 6.5 6.5 6.5 6.5 6.5 6.5 6.5 6.5 6.5 6.5 6.5 6.4 6.5 6.4 6.5 6.5 6.5 6.5 6.5 6.5 6.5 6.5 6.5 6.5 6.5 6.5 6.5 6.5 6.3 5.9 5.4 4.8 3.7 2.6 1.7
0.7 2.1 4.0 5.6 6.0 6.5 6.5 6.5 6.5 6.3 5.7 5.7 6.0 6.5 6.5 6.3 4.5 4.5 4.0 4.5 5.7 6.4 6.5 6.5 6.5 6.5 6.5 6.5 6.5 6.5 6.5 6.5 6.5 6.5 6.5 6.5 6.5 6.5 6.5 6.3 4.9 4.2 2.9 2.9 2.7
Wind_Speed
35 33 29 5 8 9 7 9 10 9 9 9 8 2 3 11 16 3 6 3 1 1 2 2 2 3 4 4 4 3 4 2 5 5 4 3 2 3 1 1 3 4 3 2 2
41 37 31 16 5 10 10 10 9 6 9 10 8 6 11 6 7 10 12 12 8 7 2 4 5 4 4 3 4 5 4 4 1 1 3 2 3 3 2 4 2 4 4 4 5
39 40 38 25 11 7 8 10 10 10 11 10 8 16 17 12 2 4 17 13 14 6 2 2 4 5 5 4 4 2 3 3 2 1 2 2 2 3 2 2 2 3 3 3 3
38 39 35 32 17 12 11 13 14 16 13 14 14 22 21 2 4 3 16 17 15 10 1 5 5 5 5 5 2 6 4 2 2 4 2 3 4 2 1 1 3 2 1 2 5
34 36 37 34 39 12 9 14 13 17 15 21 25 21 5 5 2 11 22 18 9 2 4 5 6 4 5 5 3 5 2 5 3 6 5 2 2 3 4 4 6 5 3 4 3
30 32 35 31 35 39 29 19 25 29 31 32 24 18 4 9 4 13 14 6 4 4 4 6 5 4 7 4 5 3 5 3 5 4 4 4 2 5 2 2 5 6 4 4 3
32 30 27 28 30 33 36 25 41 36 33 31 22 8 10 3 9 17 7 4 5 1 6 3 4 6 5 6 3 3 4 3 7 4 3 3 3 5 3 3 4 5 5 3 4
29 29 24 24 29 31 29 33 29 32 27 20 12 2 5 2 11 7 7 6 7 6 7 3 8 9 5 4 6 5 5 3 4 4 4 3 7 3 4 1 4 6 6 5 4
26 25 24 15 14 20 32 26 24 22 18 10 5 3 4 12 7 7 5 4 4 5 8 4 6 5 6 5 5 7 2 1 2 3 4 3 6 3 2 4 9 9 6 4 2
25 22 21 20 13 8 11 15 30 9 5 3 3 2 5 4 5 6 5 5 8 4 7 10 6 5 5 5 4 4 4 1 1 5 4 5 10 11 7 7 11 10 7 4 5
21 23 20 17 16 13 5 4 5 7 12 7 2 5 3 8 3 6 5 5 5 9 5 5 9 4 3 3 2 5 4 3 0 2 3 4 10 17 8 7 10 8 6 6 6
19 17 19 15 25 19 7 6 1 3 9 6 4 4 1 2 9 16 7 6 7 5 3 7 4 2 3 5 6 6 3 3 3 1 2 4 15 18 12 6 4 6 7 6 4
16 15 14 14 6 8 6 5 1 2 5 8 3 4 4 6 5 9 6 3 6 6 6 6 1 3 4 5 6 4 5 1 2 5 0 7 8 6 2 2 2 2 4 4 6
15 13 13 7 6 0 3 3 2 2 5 9 9 6 6 2 6 2 4 3 6 4 3 6 3 3 4 4 2 1 2 1 2 4 3 4 5 7 2 6 5 7 7 8 7
15 12 9 9 5 3 2 1 1 1 6 8 7 3 5 6 1 8 4 7 4 3 3 2 2 4 4 1 1 1 1 1 1 3 4 1 2 8 3 5 7 9 9 8 8
13 10 5 5 3 1 1 2 4 6 1 6 4 5 4 6 3 3 5 7 3 6 6 2 0 2 1 1 2 2 3 5 4 2 2 1 4 6 4 5 2 2 7 8 8
9 5 4 1 1 1 2 3 5 7 4 4 2 4 3 6 6 5 5 5 3 5 4 5 3 3 1 2 2 4 4 3 5 3 5 1 1 11 6 7 5 4 6 8 8
2 4 4 3 2 4 3 6 10 3 2 4 4 5 4 4 4 4 3 3 3 4 3 4 5 1 1 1 3 1 4 4 5 2 5 0 7 6 5 4 5 6 6 6 7
2 2 2 2 2 3 5 7 6 5 2 2 3 4 5 3 2 3 1 4 3 4 5 4 2 1 1 1 2 2 0 3 5 1 3 3 8 10 7 9 7 8 7 9 9
1 2 2 2 1 4 5 5 4 5 5 3 2 2 2 3 3 2 2 2 3 4 2 5 2 1 1 2 2 2 4 3 2 1 5 5 6 6 4 4 6 8 10 10 9
3 3 2 2 2 5 4 1 3 2 2 4 5 3 2 1 2 1 1 2 2 2 2 4 3 2 2 6 7 2 2 2 2 4 3 4 6 7 8 7 8 9 9 8 8
2 3 1 2 4 2 2 4 2 2 1 1 2 2 5 6 4 2 3 5 7 5 4 1 3 4 7 1 4 4 6 6 3 4 4 2 9 4 8 8 5 7 7 6 7
2 2 1 3 3 2 0 2 1 3 2 1 2 3 2 5 2 4 3 2 5 5 5 3 1 2 5 3 1 4 5 4 3 3 7 4 7 2 4 6 7 8 8 8 8
2 3 4 4 1 6 3 1 2 1 1 2 1 2 2 1 2 1 2 2 4 2 2 3 2 5 5 2 3 4 5 8 6 3 3 13 9 15 8 7 8 8 9 10 11
4 0 2 2 4 3 2 5 2 3 2 3 2 5 5 2 1 3 2 1 1 2 2 3 3 1 6 9 7 11 10 9 15 17 10 3 14 25 6 9 10 9 8 9 13
2 1 3 1 1 2 2 4 5 2 4 3 4 1 5 5 7 5 4 4 5 1 4 1 3 1 5 7 6 12 16 18 20 20 22 23 29 29 26 15 12 11 9 11 11
1 1 2 3 2 2 3 3 3 3 3 3 5 2 3 10 7 5 6 3 4 8 7 5 2 2 5 4 9 10 15 22 10 10 25 18 28 15 15 13 8 10 10 12 11
Wind_Direction
6 2 4 7 213 182 206 187 193 222 216 197 170 189 237 155 132 126 59 293 348 27 57 106 68 96 70 72 50 108 62 126 169 159 147 357 93 15 301 64 37 24 98 341 24
12 15 21 37 213 203 193 200 210 212 160 127 157 148 102 113 100 61 359 9 360 351 104 125 110 89 61 64 25 71 85 171 85 41 130 77 79 340 41 21 64 55 58 36 46
13 12 22 43 88 138 167 163 171 127 121 139 136 132 120 195 27 3 349 347 324 351 83 93 91 77 68 54 8 73 113 151 44 29 29 72 81 314 105 278 219 186 138 21 54
14 14 26 29 100 120 140 145 145 153 141 141 124 136 124 329 166 291 335 323 308 294 137 97 46 61 73 88 2 94 63 52 73 11 34 40 312 27 333 199 69 108 34 302 320
17 18 19 27 34 127 101 146 162 158 146 129 111 94 105 60 348 298 324 325 305 163 72 103 76 107 89 98 68 72 100 54 61 46 64 336 7 301 268 309 309 249 260 283 343
18 23 23 31 36 48 62 110 120 122 121 118 98 90 10 81 295 299 314 327 22 66 53 46 133 119 92 66 64 60 77 83 41 35 36 22 336 1 192 357 28 62 50 65 58
25 25 26 33 45 51 52 63 104 102 104 84 83 107 81 53 315 314 347 358 347 88 82 30 115 73 127 89 144 91 73 51 16 5 17 347 279 238 276 342 95 10 339 360 123
18 28 29 40 51 52 60 65 81 93 96 105 91 58 71 298 318 2 352 22 16 47 89 82 79 94 62 117 33 60 49 90 337 356 357 20 268 263 16 63 294 301 322 318 157
11 20 33 29 18 30 54 71 85 96 116 120 60 54 22 336 16 326 16 42 352 28 47 61 66 72 33 75 40 14 147 93 8 15 346 59 273 255 204 327 290 279 300 294 298
1 8 20 28 11 33 39 53 60 66 43 95 136 99 16 320 312 333 333 39 53 23 26 37 49 73 38 54 191 168 112 62 40 330 356 313 273 278 265 255 266 282 289 247 278
0 353 10 29 36 21 48 32 21 17 45 70 332 80 346 302 261 1 1 10 35 47 58 20 63 84 68 29 113 118 97 108 315 29 342 265 282 280 281 256 276 273 243 235 257
358 358 355 20 51 36 34 71 161 177 59 51 104 88 37 345 34 1 19 70 52 65 360 34 68 344 293 61 79 54 84 9 283 221 359 327 286 278 280 254 257 266 219 234 263
0 356 356 357 54 47 76 104 238 283 70 11 355 35 343 20 51 344 20 63 72 50 34 100 198 325 84 46 66 35 113 112 241 325 13 328 284 297 266 277 282 262 229 255 249
1 2 3 10 41 70 53 326 8 140 88 351 347 21 355 17 49 333 5 102 45 108 71 76 340 70 71 70 71 119 197 61 346 38 263 28 278 295 345 281 250 243 239 247 256
357 3 40 61 148 53 198 309 277 78 67 314 318 284 338 80 190 347 333 39 80 90 81 265 44 67 71 92 9 132 98 33 53 71 37 358 52 269 333 283 254 238 233 244 251
350 349 1 30 58 73 351 35 39 41 348 333 320 349 38 25 36 316 41 49 134 72 42 86 291 60 117 68 76 126 89 47 53 67 2 216 130 278 226 212 259 254 234 234 246
329 352 57 52 170 117 47 37 39 79 328 291 358 2 77 20 33 41 33 27 73 80 17 9 349 327 38 70 27 72 58 340 349 8 225 151 21 248 261 240 228 238 236 237 238
4 96 37 56 138 114 48 52 63 260 267 331 1 5 43 12 23 30 61 53 51 91 98 126 325 177 135 180 182 58 138 153 227 256 284 306 236 252 231 246 253 247 250 264 249
100 24 53 335 131 54 77 56 172 209 196 56 0 26 357 354 81 60 55 177 209 182 134 148 271 296 199 96 102 170 234 155 99 210 283 252 284 287 254 263 251 254 255 253 248
74 57 354 345 117 68 69 127 151 193 150 125 64 50 312 330 13 27 216 205 205 200 157 202 108 246 189 107 36 190 150 83 9 286 286 285 278 241 305 246 224 240 242 252 249
52 59 278 29 65 50 91 138 164 208 143 135 167 145 152 279 176 261 262 316 212 224 200 137 106 263 93 203 181 144 207 93 127 156 194 299 263 213 219 212 205 227 232 243 256
70 43 269 130 47 25 79 124 148 166 337 152 158 158 166 167 189 229 220 218 175 164 183 200 151 194 207 203 168 180 182 161 139 216 222 254 273 247 233 241 240 259 268 268 248
54 281 305 95 86 37 319 97 115 130 199 195 261 219 181 175 179 199 214 346 156 160 169 192 299 360 349 18 22 218 196 171 121 113 202 169 259 283 285 279 261 260 268 269 273
47 16 339 45 58 120 123 125 151 191 193 186 241 23 4 289 205 216 230 161 182 193 145 88 179 206 200 193 135 221 206 194 170 185 206 227 280 264 279 270 277 265 258 262 265
28 9 186 344 4 79 99 156 146 203 216 188 213 204 175 198 240 244 219 116 116 195 86 115 259 202 268 259 246 243 236 202 210 221 205 209 234 266 237 253 259 262 272 276 277
49 45 10 76 4 98 27 220 191 198 171 243 201 150 198 203 190 197 163 199 207 77 153 102 262 131 278 279 253 262 244 228 229 230 245 257 274 268 276 278 275 263 267 268 269
347 299 105 329 66 100 223 184 224 179 218 205 211 177 206 235 216 217 201 198 185 165 183 159 184 13 265 327 297 277 243 216 210 216 224 236 245 277 283 275 261 266 251 258 260